Location: Eymir
(36.7333°N, 29.7833°E)
Time: 18:27:10
(UTC+00:00)

SJ 16-02 - Pass Details

Date: 14 January 2026
Orbit: 582 x 594 km, 75.0° (Epoch: 17 February)

Event Time Altitude Azimuth Distance (km) Brightness Sun altitude
Rises 04:33:18 0° 175° (S) 2,788 5.1 -8.1°
Reaches altitude 10° 04:35:38 10° 166° (SSE) 1,893 4.4 -7.7°
Maximum altitude 04:39:27 34° 101° (E) 961 3.2 -7.0°
Drops below altitude 10° 04:43:18 10° 36° (NE) 1,905 4.1 -6.2°
Sets 04:45:39 0° 27° (NNE) 2,809 4.8 -5.8°
